User: anonymous   Login
Location: Unspecified
(0.0000°N, 0.0000°E)
Time: 15:02:39
(UTC+00:00)
Language:

ISAT - Orbit

View from above orbital plane
View from above orbital plane
View from above satellite
View from above satellite

Ground track
Ground track

The orbit data is extracted from the following two-line orbital elements,

1 43879U 18111D   19052.87060257  .00000216  00000-0  24419-4 0  9998
2 43879  97.7250 322.5260 0014437  57.7276 302.5341 14.95892775  6489
Epoch (UTC): 21 February 2019 20:53:40
Eccentricity: 0.0014437
inclination: 97.7250°
perigee height: 569 km
apogee height: 589 km
right ascension of ascending node: 322.5260°
argument of perigee: 57.7276°
revolutions per day: 14.95892775
mean anomaly at epoch: 302.5341°
orbit number at epoch: 648

The dashed part of the orbit path shows where the satellite is in the earth's shadow,  

DLR